Terminal Aerodrome Forecast
Issued by NWS

Home | Current Version | Previous Version | Text Only | Print | Product List | Glossary On
Versions: 1 2 3 4 5 6 7 8 9 10 11 12 13 14 15 16 17 18 19 20 21 22 23 24 25 26 27 28 29 30 31 32 33 34 35 36 37 38 39 40 41 42 43 44 45 46 47 48 49 50
000
FTAK31 PAFC 260541
TAFASD
TAF
PASD 260541Z 2606/2706 28009KT P6SM -RA BKN050
      TEMPO 2606/2610 28010G20KT
     FM261000 28020G25KT P6SM BKN050
     FM261600 29010KT P6SM BKN050
     FM270300 31008KT P6SM BKN050
     AMD LTD TO CLD VIS AND WIND=

USA.gov is the U.S. government's official web portal to all federal, state and local government web resources and services.